Weather History for St. George, UT

Change the Weather History Date:

Monday, February 11, 2013

  Actual Average Record
Temperature  
Mean Temperature 35 °F -  
Max Temperature 46 °F 60 °F 76 °F (1951)
Min Temperature 24 °F 31 °F 13 °F (1933)
Degree Days  
Heating Degree Days 30    
Moisture  
Dew Point 15 °F    
Average Humidity 44    
Maximum Humidity 70    
Minimum Humidity 27    
Precipitation  
Precipitation 0.00 in - - ()
Sea Level Pressure  
Sea Level Pressure 30.13 in    
Wind  
Wind Speed 5 mph (NNE)    
Max Wind Speed 18 mph    
Max Gust Speed 23 mph    
Visibility 10 miles    
Events      
Averages and records for this station are not official NWS values.
T = Trace of Precipitation, MM = Missing Value Source: NWS Daily Summary

Daily Weather History Graph

Daily Weather History Graph

Search for Another Location

Airport:

Trip Planner

Search our weather history database for the weather conditions in past years. The results will help you decide how hot, cold, wet, or windy it might be!

Date:

Astronomy

Feb. 11, 2013 Rise Set
Actual Time 7:27 AM MST 6:10 PM MST
Civil Twilight 7:00 AM MST 6:37 PM MST
Nautical Twilight 6:29 AM MST 7:07 PM MST
Astronomical Twilight 5:59 AM MST 7:38 PM MST
Moon 7:57 AM MST (2/11) 8:07 PM MST (2/11)
Length of Visible Light 11h 36m
Length of Day
10h 43m
Waxing Crescent, 3% of the Moon is Illuminated
Feb 11
Waxing Crescent
Feb 17
First Quarter
Feb 25
Full
Mar 4
Last Quarter
Mar 11
New

Hourly Weather History & Observations

Time (MST) Temp. Windchill Dew Point Humidity Pressure Visibility Wind Dir Wind Speed Gust Speed Precip Events Conditions
12:15 AM 33.8 °F 29.6 °F 24.8 °F 70% 30.05 in 10.0 mi NNE 4.6 mph - N/A   Partly Cloudy
12:35 AM 35.6 °F 30.7 °F 17.6 °F 48% 30.05 in 10.0 mi NNE 5.8 mph - N/A   Clear
12:55 AM 33.8 °F 27.7 °F 19.4 °F 56% 30.06 in 10.0 mi NNE 6.9 mph - N/A   Clear
1:15 AM 33.8 °F 27.7 °F 17.6 °F 52% 30.06 in 10.0 mi NNE 6.9 mph - N/A   Clear
1:35 AM 33.8 °F 27.7 °F 17.6 °F 52% 30.06 in 10.0 mi NNE 6.9 mph - N/A   Clear
1:55 AM 32.0 °F 25.6 °F 19.4 °F 60% 30.06 in 10.0 mi North 6.9 mph - N/A   Scattered Clouds
2:15 AM 30.2 °F 26.7 °F 19.4 °F 64% 30.06 in 10.0 mi West 3.5 mph - N/A   Partly Cloudy
2:35 AM 32.0 °F - 17.6 °F 55% 30.06 in 10.0 mi Calm Calm - N/A   Clear
3:15 AM 32.0 °F - 17.6 °F 55% 30.07 in 10.0 mi Calm Calm - N/A   Clear
3:35 AM 30.2 °F 26.7 °F 17.6 °F 60% 30.07 in 10.0 mi ENE 3.5 mph - N/A   Clear
3:55 AM 28.4 °F 24.6 °F 17.6 °F 64% 30.07 in 10.0 mi South 3.5 mph - N/A   Partly Cloudy
4:15 AM 30.2 °F 26.7 °F 17.6 °F 60% 30.07 in 10.0 mi South 3.5 mph - N/A   Mostly Cloudy
4:55 AM 28.4 °F 22.2 °F 15.8 °F 59% 30.07 in 10.0 mi East 5.8 mph - N/A   Scattered Clouds
5:15 AM 28.4 °F 23.3 °F 15.8 °F 59% 30.08 in 10.0 mi SSW 4.6 mph - N/A   Clear
5:35 AM 28.4 °F - 15.8 °F 59% 30.08 in 10.0 mi Calm Calm - N/A   Clear
5:55 AM 28.4 °F - 15.8 °F 59% 30.08 in 10.0 mi Calm Calm - N/A   Clear
6:15 AM 28.4 °F - 15.8 °F 59% 30.08 in 10.0 mi Calm Calm - N/A   Clear
6:35 AM 24.8 °F - 14.0 °F 64% 30.09 in 10.0 mi Calm Calm - N/A   Clear
6:55 AM 26.6 °F - 15.8 °F 64% 30.09 in 10.0 mi Calm Calm - N/A   Clear
7:15 AM 26.6 °F - 15.8 °F 64% 30.10 in 10.0 mi Calm Calm - N/A   Clear
7:35 AM 26.6 °F - 15.8 °F 64% 30.10 in 10.0 mi Calm Calm - N/A   Clear
7:55 AM 28.4 °F - 15.8 °F 59% 30.11 in 10.0 mi Calm Calm - N/A   Clear
8:15 AM 28.4 °F - 17.6 °F 64% 30.12 in 10.0 mi Calm Calm - N/A   Clear
8:35 AM 30.2 °F 25.4 °F 17.6 °F 60% 30.13 in 10.0 mi NNE 4.6 mph - N/A   Clear
8:55 AM 32.0 °F 28.7 °F 15.8 °F 51% 30.14 in 10.0 mi NW 3.5 mph - N/A   Clear
9:15 AM 32.0 °F - 15.8 °F 51% 30.15 in 10.0 mi Calm Calm - N/A   Clear
9:35 AM 33.8 °F 30.8 °F 17.6 °F 52% 30.15 in 10.0 mi North 3.5 mph - N/A   Clear
9:55 AM 35.6 °F 28.6 °F 15.8 °F 44% 30.15 in 10.0 mi WSW 9.2 mph - N/A   Clear
10:15 AM 35.6 °F 31.7 °F 15.8 °F 44% 30.15 in 10.0 mi SSW 4.6 mph - N/A   Clear
10:35 AM 35.6 °F - 15.8 °F 44% 30.16 in 10.0 mi Calm Calm - N/A   Clear
10:55 AM 37.4 °F - 15.8 °F 41% 30.15 in 10.0 mi Calm Calm - N/A   Clear
11:15 AM 37.4 °F - 15.8 °F 41% 30.15 in 10.0 mi Calm Calm - N/A   Clear
11:35 AM 39.2 °F 37.0 °F 17.6 °F 42% 30.15 in 10.0 mi WNW 3.5 mph - N/A   Clear
11:55 AM 39.2 °F - 15.8 °F 39% 30.15 in 10.0 mi Calm Calm - N/A   Clear
12:15 PM 39.2 °F 35.9 °F 15.8 °F 39% 30.15 in 10.0 mi WSW 4.6 mph - N/A   Clear
12:35 PM 41.0 °F 38.0 °F 15.8 °F 36% 30.14 in 10.0 mi WSW 4.6 mph - N/A   Clear
12:55 PM 41.0 °F 35.8 °F 15.8 °F 36% 30.14 in 10.0 mi WNW 8.1 mph - N/A   Clear
1:15 PM 42.8 °F 36.6 °F 15.8 °F 34% 30.13 in 10.0 mi West 11.5 mph - N/A   Clear
1:35 PM 42.8 °F 37.5 °F 15.8 °F 34% 30.13 in 10.0 mi West 9.2 mph - N/A   Clear
1:55 PM 42.8 °F 41.1 °F 14.0 °F 31% 30.12 in 10.0 mi West 3.5 mph - N/A   Clear
2:15 PM 44.6 °F 40.7 °F 14.0 °F 29% 30.12 in 10.0 mi West 6.9 mph - N/A   Clear
2:35 PM 42.8 °F 40.1 °F 12.2 °F 29% 30.12 in 10.0 mi NW 4.6 mph - N/A   Clear
2:55 PM 44.6 °F 43.1 °F 12.2 °F 27% 30.11 in 10.0 mi WSW 3.5 mph - N/A   Clear
3:55 PM 46.4 °F 44.3 °F 14.0 °F 27% 30.12 in 10.0 mi ESE 4.6 mph - N/A   Clear
4:15 PM 46.4 °F 45.2 °F 14.0 °F 27% 30.12 in 10.0 mi ESE 3.5 mph - N/A   Clear
4:35 PM 46.4 °F 44.3 °F 14.0 °F 27% 30.12 in 10.0 mi NNE 4.6 mph - N/A   Clear
4:55 PM 46.4 °F 40.7 °F 14.0 °F 27% 30.12 in 10.0 mi ENE 12.7 mph - N/A   Clear
5:15 PM 44.6 °F 38.4 °F 14.0 °F 29% 30.13 in 10.0 mi NE 12.7 mph - N/A   Clear
5:35 PM 44.6 °F 37.8 °F 12.2 °F 27% 30.13 in 10.0 mi NE 15.0 mph - N/A   Clear
5:55 PM 42.8 °F 34.5 °F 12.2 °F 29% 30.14 in 10.0 mi NE 18.4 mph - N/A   Clear
6:15 PM 39.2 °F 30.2 °F 12.2 °F 33% 30.15 in 10.0 mi NE 17.3 mph - N/A   Clear
6:35 PM 39.2 °F 31.2 °F 12.2 °F 33% 30.15 in 10.0 mi ENE 13.8 mph 19.6 mph N/A   Clear
6:55 PM 39.2 °F 30.5 °F 12.2 °F 33% 30.16 in 10.0 mi ENE 16.1 mph 23.0 mph N/A   Clear
7:15 PM 39.2 °F 33.6 °F 10.4 °F 31% 30.17 in 10.0 mi ENE 8.1 mph 20.7 mph N/A   Clear
7:35 PM 37.4 °F 29.8 °F 10.4 °F 33% 30.18 in 10.0 mi ENE 11.5 mph - N/A   Clear
7:55 PM 37.4 °F 29.3 °F 10.4 °F 33% 30.19 in 10.0 mi ENE 12.7 mph - N/A   Clear
8:15 PM 37.4 °F 30.8 °F 10.4 °F 33% 30.20 in 10.0 mi NNE 9.2 mph - N/A   Clear
8:35 PM 37.4 °F 29.3 °F 10.4 °F 33% 30.20 in 10.0 mi NE 12.7 mph 17.3 mph N/A   Clear
8:55 PM 37.4 °F 28.5 °F 10.4 °F 33% 30.21 in 10.0 mi NE 15.0 mph - N/A   Clear
9:15 PM 37.4 °F 28.2 °F 10.4 °F 33% 30.21 in 10.0 mi NE 16.1 mph - N/A   Clear
9:35 PM 35.6 °F 27.5 °F 10.4 °F 35% 30.21 in 10.0 mi NNE 11.5 mph - N/A   Clear
9:55 PM 35.6 °F 29.2 °F 12.2 °F 38% 30.22 in 10.0 mi North 8.1 mph - N/A   Clear
10:15 PM 35.6 °F 28.6 °F 10.4 °F 35% 30.23 in 10.0 mi NNE 9.2 mph - N/A   Clear
10:35 PM 33.8 °F - 12.2 °F 41% 30.24 in 10.0 mi Calm Calm - N/A   Clear
10:55 PM 33.8 °F - 12.2 °F 41% 30.24 in 10.0 mi Calm Calm - N/A   Clear
11:15 PM 33.8 °F - 12.2 °F 41% 30.25 in 10.0 mi Calm Calm - N/A   Clear
11:35 PM 33.8 °F 27.7 °F 12.2 °F 41% 30.25 in 10.0 mi East 6.9 mph - N/A   Clear
11:55 PM 33.8 °F 30.8 °F 12.2 °F 41% 30.25 in 10.0 mi North 3.5 mph - N/A   Clear